| time (UTC) | temp C | wind direction | speed KPH | gust KPH | rain 1hr cm | rain 24hr cm | rain mn cm | humidity % | barometer mb |
| 20260507114525 | 5 | 26 | 0.0 | 0.0 | 0.00 | 0.00 | 0.00 | 91 | 1019.1 |
| 20260507113009 | 5 | 26 | 0.0 | 0.0 | 0.00 | 0.00 | 0.00 | 91 | 1019.2 |
| 20260507111557 | 6 | 26 | 0.0 | 0.0 | 0.00 | 0.00 | 0.00 | 91 | 1019.2 |
| 20260507110021 | 6 | 26 | 0.0 | 0.0 | 0.00 | 0.00 | 0.00 | 91 | 1019.1 |
| 20260507104507 | 6 | 26 | 0.0 | 0.0 | 0.00 | 0.00 | 0.00 | 91 | 1019.2 |
| 20260507103042 | 6 | 26 | 0.0 | 0.0 | 0.00 | 0.00 | 0.00 | 91 | 1019.1 |
| 20260507101526 | 6 | 26 | 0.0 | 0.0 | 0.00 | 0.00 | 0.00 | 91 | 1018.7 |
| 20260507100009 | 6 | 26 | 0.0 | 0.0 | 0.00 | 0.00 | 0.00 | 91 | 1018.7 |
| 20260507094547 | 6 | 25 | 0.0 | 0.0 | 0.00 | 0.00 | 0.00 | 92 | 1018.6 |
| 20260507093040 | 6 | 26 | 0.0 | 1.6 | 0.00 | 0.00 | 0.00 | 92 | 1018.8 |
| 20260507091511 | 6 | 26 | 0.0 | 0.0 | 0.00 | 0.00 | 0.00 | 92 | 1018.6 |
| 20260507090048 | 6 | 25 | 0.0 | 0.0 | 0.00 | 0.00 | 0.00 | 91 | 1019.0 |
| 20260507084530 | 6 | 26 | 0.0 | 0.0 | 0.00 | 0.00 | 0.00 | 91 | 1019.1 |
| 20260507083002 | 6 | 26 | 0.0 | 0.0 | 0.00 | 0.00 | 0.00 | 90 | 1018.9 |
| 20260507081540 | 6 | 26 | 0.0 | 1.6 | 0.00 | 0.00 | 0.00 | 90 | 1019.2 |
| 20260507080023 | 6 | 26 | 0.0 | 0.0 | 0.00 | 0.00 | 0.00 | 89 | 1019.3 |
| 20260507074506 | 6 | 26 | 0.0 | 1.6 | 0.00 | 0.00 | 0.00 | 88 | 1019.4 |
| 20260507073044 | 6 | 26 | 0.0 | 0.0 | 0.00 | 0.00 | 0.00 | 87 | 1019.3 |
| 20260507071529 | 6 | 26 | 0.0 | 0.0 | 0.00 | 0.00 | 0.00 | 87 | 1019.4 |
| 20260507070103 | 7 | 26 | 0.0 | 0.0 | 0.00 | 0.00 | 0.00 | 86 | 1019.3 |
| 20260507064537 | 7 | 26 | 0.0 | 0.0 | 0.00 | 0.00 | 0.00 | 86 | 1019.5 |
| 20260507063015 | 7 | 25 | 0.0 | 0.0 | 0.00 | 0.00 | 0.00 | 85 | 1019.5 |
| 20260507061553 | 7 | 26 | 0.0 | 0.0 | 0.00 | 0.00 | 0.00 | 83 | 1019.1 |
| 20260507060021 | 7 | 25 | 0.0 | 0.0 | 0.00 | 0.00 | 0.00 | 82 | 1019.1 |
| 20260507054605 | 8 | 25 | 0.0 | 0.0 | 0.00 | 0.00 | 0.00 | 82 | 1019.4 |
| 20260507053026 | 8 | 26 | 0.0 | 1.6 | 0.00 | 0.00 | 0.00 | 81 | 1019.3 |
| 20260507051601 | 8 | 26 | 0.0 | 0.0 | 0.00 | 0.00 | 0.00 | 81 | 1019.2 |
| 20260507050039 | 8 | 26 | 0.0 | 0.0 | 0.00 | 0.00 | 0.00 | 79 | 1019.3 |
| 20260507044509 | 8 | 26 | 0.0 | 0.0 | 0.00 | 0.00 | 0.00 | 78 | 1019.4 |
| 20260507043047 | 9 | 26 | 0.0 | 0.0 | 0.00 | 0.00 | 0.00 | 77 | 1019.4 |
| 20260507041535 | 9 | 26 | 0.0 | 0.0 | 0.00 | 0.00 | 0.00 | 75 | 1019.2 |
| 20260507040002 | 9 | 26 | 0.0 | 0.0 | 0.00 | 0.00 | 0.00 | 75 | 1019.1 |
| 20260507034541 | 10 | 26 | 0.0 | 1.6 | 0.00 | 0.00 | 0.00 | 76 | 1018.9 |
| 20260507033029 | 10 | 26 | 0.0 | 0.0 | 0.00 | 0.00 | 0.00 | 75 | 1018.7 |
| 20260507031508 | 10 | 26 | 0.0 | 0.0 | 0.00 | 0.00 | 0.00 | 72 | 1018.7 |
| 20260507030045 | 11 | 26 | 0.0 | 0.0 | 0.00 | 0.00 | 0.00 | 72 | 1018.6 |
| 20260507024518 | 11 | 26 | 0.0 | 0.0 | 0.00 | 0.00 | 0.00 | 71 | 1018.5 |
| 20260507023002 | 11 | 26 | 0.0 | 0.0 | 0.00 | 0.00 | 0.00 | 68 | 1018.4 |
| 20260507021540 | 12 | 26 | 0.0 | 0.0 | 0.00 | 0.00 | 0.00 | 66 | 1018.4 |
| 20260507020027 | 12 | 26 | 0.0 | 0.0 | 0.00 | 0.00 | 0.00 | 63 | 1018.2 |
| 20260507014516 | 13 | 26 | 0.0 | 1.6 | 0.00 | 0.00 | 0.00 | 58 | 1017.9 |
| 20260507013103 | 13 | 25 | 0.0 | 1.6 | 0.00 | 0.00 | 0.00 | 57 | 1017.8 |
| 20260507011536 | 14 | 343 | 0.0 | 3.2 | 0.00 | 0.00 | 0.00 | 56 | 1017.7 |
| 20260507010002 | 15 | 27 | 1.6 | 6.4 | 0.00 | 0.00 | 0.00 | 52 | 1017.6 |
| 20260507004539 | 15 | 318 | 0.0 | 11.3 | 0.00 | 0.00 | 0.00 | 53 | 1017.5 |
| 20260507003022 | 16 | 21 | 1.6 | 4.8 | 0.00 | 0.00 | 0.00 | 51 | 1017.4 |
| 20260507001621 | 17 | 76 | 0.0 | 6.4 | 0.00 | 0.03 | 0.00 | 48 | 1017.2 |
| 20260507000032 | 17 | 122 | 1.6 | 11.3 | 0.00 | 0.03 | 0.00 | 44 | 1017.1 |
| 20260506234514 | 18 | 211 | 0.0 | 12.9 | 0.00 | 0.03 | 0.00 | 43 | 1017.1 |
| 20260506233057 | 18 | 65 | 4.8 | 16.1 | 0.00 | 0.03 | 0.00 | 41 | 1016.8 |
| 20260506231525 | 18 | 75 | 1.6 | 8.0 | 0.00 | 0.08 | 0.00 | 45 | 1016.8 |
| 20260506230009 | 19 | 58 | 8.0 | 17.7 | 0.00 | 0.08 | 0.00 | 42 | 1016.5 |
| 20260506224547 | 19 | 354 | 4.8 | 20.9 | 0.00 | 0.08 | 0.00 | 43 | 1016.5 |
| 20260506223024 | 18 | 314 | 8.0 | 17.7 | 0.00 | 0.08 | 0.00 | 42 | 1016.4 |
| 20260506221507 | 19 | 85 | 4.8 | 19.3 | 0.00 | 0.08 | 0.00 | 41 | 1016.2 |
| 20260506220043 | 18 | 27 | 3.2 | 20.9 | 0.00 | 0.08 | 0.00 | 43 | 1016.3 |
| 20260506214526 | 18 | 58 | 3.2 | 20.9 | 0.00 | 0.08 | 0.00 | 43 | 1016.4 |
| 20260506213012 | 18 | 71 | 3.2 | 14.5 | 0.00 | 0.08 | 0.00 | 45 | 1016.4 |
| 20260506211547 | 19 | 345 | 3.2 | 16.1 | 0.00 | 0.08 | 0.00 | 43 | 1016.7 |
| 20260506210036 | 18 | 336 | 6.4 | 16.1 | 0.00 | 0.08 | 0.00 | 46 | 1016.7 |
| 20260506204504 | 18 | 48 | 4.8 | 22.5 | 0.00 | 0.08 | 0.00 | 46 | 1016.8 |
| 20260506203044 | 18 | 291 | 6.4 | 17.7 | 0.00 | 0.08 | 0.00 | 47 | 1016.9 |
| 20260506201521 | 18 | 290 | 4.8 | 16.1 | 0.00 | 0.08 | 0.00 | 45 | 1017.2 |
| 20260506200143 | 18 | 12 | 8.0 | 20.9 | 0.00 | 0.08 | 0.00 | 47 | 1017.3 |
| 20260506194531 | 18 | 332 | 1.6 | 12.9 | 0.00 | 0.08 | 0.00 | 47 | 1017.4 |
| 20260506193002 | 18 | 10 | 9.7 | 16.1 | 0.00 | 0.08 | 0.00 | 45 | 1017.6 |
| 20260506191540 | 17 | 348 | 4.8 | 14.5 | 0.00 | 0.08 | 0.00 | 50 | 1017.5 |
| 20260506190012 | 18 | 313 | 4.8 | 20.9 | 0.00 | 0.08 | 0.00 | 49 | 1017.8 |
| 20260506184600 | 17 | 327 | 3.2 | 12.9 | 0.00 | 0.08 | 0.00 | 53 | 1018.2 |
| 20260506183041 | 17 | 62 | 3.2 | 16.1 | 0.00 | 0.08 | 0.00 | 48 | 1018.1 |
| 20260506181514 | 17 | 323 | 4.8 | 16.1 | 0.00 | 0.10 | 0.00 | 54 | 1018.3 |
| 20260506180058 | 16 | 60 | 1.6 | 16.1 | 0.00 | 0.10 | 0.00 | 54 | 1018.6 |
| 20260506174527 | 16 | 25 | 4.8 | 14.5 | 0.00 | 0.10 | 0.00 | 55 | 1019.2 |
| 20260506173124 | 16 | 354 | 6.4 | 12.9 | 0.00 | 0.10 | 0.00 | 57 | 1019.5 |
| 20260506171552 | 16 | 322 | 4.8 | 16.1 | 0.00 | 0.10 | 0.00 | 53 | 1019.5 |
| 20260506170024 | 16 | 62 | 1.6 | 8.0 | 0.00 | 0.10 | 0.00 | 55 | 1019.3 |
| 20260506164558 | 16 | 55 | 4.8 | 16.1 | 0.00 | 0.10 | 0.00 | 55 | 1019.4 |
| 20260506163036 | 15 | 323 | 3.2 | 14.5 | 0.00 | 0.10 | 0.00 | 59 | 1019.6 |
| 20260506161520 | 15 | 295 | 4.8 | 14.5 | 0.00 | 0.10 | 0.00 | 63 | 1018.9 |
| 20260506160057 | 14 | 43 | 6.4 | 17.7 | 0.00 | 0.10 | 0.00 | 62 | 1018.4 |
| 20260506154521 | 14 | 45 | 3.2 | 16.1 | 0.00 | 0.10 | 0.00 | 63 | 1017.9 |
| 20260506153004 | 13 | 97 | 1.6 | 14.5 | 0.00 | 0.10 | 0.00 | 66 | 1017.6 |
| 20260506151541 | 13 | 83 | 3.2 | 24.1 | 0.00 | 0.10 | 0.00 | 67 | 1017.9 |
| 20260506150011 | 12 | 85 | 6.4 | 19.3 | 0.00 | 0.10 | 0.00 | 66 | 1018.4 |
| 20260506144546 | 12 | 4 | 1.6 | 14.5 | 0.00 | 0.10 | 0.00 | 70 | 1017.7 |
| 20260506143030 | 11 | 12 | 1.6 | 9.7 | 0.00 | 0.10 | 0.00 | 72 | 1018.0 |
| 20260506141503 | 10 | 85 | 1.6 | 12.9 | 0.00 | 0.10 | 0.00 | 74 | 1017.8 |
| 20260506140044 | 10 | 156 | 3.2 | 17.7 | 0.00 | 0.10 | 0.00 | 74 | 1017.5 |
| 20260506134548 | 10 | 53 | 1.6 | 22.5 | 0.00 | 0.10 | 0.00 | 77 | 1017.5 |
| 20260506133058 | 10 | 35 | 3.2 | 14.5 | 0.00 | 0.10 | 0.00 | 78 | 1018.0 |
| 20260506131532 | 9 | 14 | 3.2 | 11.3 | 0.00 | 0.10 | 0.00 | 79 | 1018.2 |
| 20260506130015 | 9 | 16 | 3.2 | 12.9 | 0.00 | 0.10 | 0.00 | 80 | 1017.9 |
| 20260506124551 | 8 | 91 | 3.2 | 14.5 | 0.00 | 0.10 | 0.00 | 83 | 1017.7 |
| 20260506123022 | 8 | 354 | 3.2 | 12.9 | 0.00 | 0.10 | 0.00 | 85 | 1017.6 |
| 20260506121509 | 8 | 33 | 3.2 | 12.9 | 0.00 | 0.10 | 0.00 | 86 | 1017.5 |
| 20260506120043 | 8 | 359 | 1.6 | 8.0 | 0.00 | 0.10 | 0.00 | 86 | 1017.5 |